User: anonymous
Location: Caltech
(34.1382°N, 118.1253°W)
Time: 21:37:11
(UTC-07:00)
Language:

Oscar 10/S400 - Orbit

View from above orbital plane
View from above orbital plane
View from above satellite
View from above satellite

Ground track
Ground track

The orbit data is extracted from the following two-line orbital elements,

1 14129U 83058B   14204.98713214  .00000072  00000-0  00000+0 0  1919
2 14129 026.2487 209.0333 6007480 015.4261 018.6013 02.05869005206004
Epoch (UTC): 23 July 2014 23:41:28
Eccentricity: 0.6007480
inclination: 26.2487°
perigee height: 4043 km
apogee height: 35404 km
right ascension of ascending node: 209.0333°
argument of perigee: 15.4261°
revolutions per day: 2.05869005
mean anomaly at epoch: 18.6013°
orbit number at epoch: 20600

The dashed part of the orbit path shows where the satellite is in the earth's shadow,  

DLR